Total_Precipitation_Accumulation
3.66 4.17 5.06 4.42 3.76 3.60 3.75 3.63 3.43 3.33 3.21 3.07 2.91 2.72 2.43 2.09 1.90 1.79 1.70 1.64 1.59 1.62 1.56 1.60 1.70 1.70 1.81 2.05 2.19 2.16 2.04 2.07 2.30 2.59 2.71 2.74 2.85 3.04 3.34 3.51 3.35 2.54 2.42
3.05 3.72 4.45 4.05 3.51 3.38 3.34 3.38 3.32 3.26 3.24 3.06 2.98 2.72 2.48 2.23 1.94 1.76 1.67 1.56 1.52 1.49 1.34 1.38 1.50 1.54 1.59 1.81 1.96 1.90 1.95 2.24 2.79 3.30 3.46 3.18 3.17 3.39 3.48 3.37 3.29 2.70 2.37
2.52 2.92 3.42 3.54 3.29 3.18 2.97 3.05 3.19 3.09 3.15 2.90 2.72 2.52 2.44 2.25 1.92 1.70 1.61 1.57 1.53 1.45 1.29 1.35 1.41 1.39 1.52 1.74 1.81 1.75 1.96 2.45 3.21 4.13 4.32 3.50 3.05 3.43 3.49 3.27 2.90 2.49 2.19
2.13 2.63 2.80 3.09 3.01 2.81 2.63 2.77 2.81 2.87 2.82 2.70 2.47 2.30 2.22 2.16 1.90 1.61 1.53 1.51 1.45 1.37 1.33 1.39 1.41 1.49 1.52 1.60 1.64 1.87 2.18 2.48 3.24 3.93 3.91 2.93 2.48 2.83 3.03 2.66 2.38 2.28 2.03
2.02 2.39 2.71 2.75 2.57 2.41 2.33 2.45 2.52 2.56 2.50 2.52 2.35 2.23 2.11 1.97 1.78 1.55 1.46 1.47 1.42 1.38 1.33 1.35 1.52 1.67 1.64 1.60 1.65 2.00 2.35 2.69 3.16 3.42 2.95 3.06 2.90 2.65 2.53 2.35 2.20 2.04 1.84
1.66 1.85 2.25 2.41 2.28 2.30 2.23 2.16 2.26 2.28 2.33 2.38 2.27 2.14 2.20 2.10 1.88 1.61 1.44 1.39 1.39 1.40 1.38 1.43 1.60 1.73 1.65 1.55 1.67 2.07 2.38 2.82 2.92 2.33 1.97 2.27 2.29 2.32 2.34 2.30 2.11 1.90 1.81
1.50 1.62 1.93 2.25 2.22 2.15 1.98 1.87 2.07 2.20 2.19 2.16 2.10 1.94 2.05 2.02 1.88 1.64 1.43 1.35 1.28 1.31 1.38 1.46 1.55 1.64 1.57 1.56 1.69 2.06 2.49 2.84 2.57 1.89 1.66 1.95 1.88 2.05 2.30 2.33 2.26 1.95 1.71
1.36 1.48 1.83 2.16 2.09 1.96 1.86 1.89 2.07 2.17 2.07 1.99 1.96 1.86 1.86 1.92 1.89 1.76 1.54 1.46 1.34 1.34 1.44 1.48 1.54 1.52 1.52 1.62 1.87 2.07 2.43 2.42 1.94 1.70 1.58 1.72 1.45 1.80 2.12 2.09 2.01 1.89 1.68
1.61 1.68 1.76 1.79 1.85 1.91 2.08 2.20 2.34 2.28 2.03 1.93 1.91 1.80 1.68 1.69 1.75 1.70 1.68 1.62 1.52 1.51 1.54 1.63 1.62 1.59 1.59 1.72 1.89 2.08 2.45 2.63 2.21 1.97 1.67 1.72 1.47 1.74 2.14 1.99 1.79 1.73 1.76
2.36 2.21 1.97 1.85 2.00 1.95 2.03 2.26 2.41 2.19 1.95 1.87 1.92 1.87 1.83 1.94 2.03 2.01 1.85 1.83 1.90 1.96 1.91 1.95 1.87 1.80 1.81 1.95 2.10 2.26 2.52 2.38 2.14 2.23 2.12 1.71 1.50 1.87 2.21 2.34 2.08 1.83 1.75
2.83 2.66 2.38 2.15 1.99 2.08 2.12 2.20 2.55 2.37 2.17 2.23 2.48 2.48 2.60 3.06 2.85 2.81 2.28 2.34 2.51 2.65 2.64 2.61 2.54 2.38 2.17 2.07 2.33 2.55 2.42 2.18 2.55 2.66 2.40 1.73 1.78 2.35 2.60 2.72 2.54 2.30 2.12
2.85 2.60 2.46 2.38 2.04 2.03 2.16 2.62 3.17 2.77 2.64 2.78 3.14 3.08 3.45 3.51 3.36 2.60 2.61 3.05 3.31 3.64 3.68 3.59 3.52 3.06 2.57 2.30 2.58 2.62 2.35 2.51 2.97 2.60 2.14 1.74 1.98 2.55 2.94 3.03 2.83 2.55 2.45
2.67 2.58 2.34 2.64 2.38 2.43 2.80 2.89 3.12 3.20 3.14 3.17 3.27 3.28 3.55 3.18 2.89 2.79 3.24 3.65 3.96 4.11 4.20 4.10 3.93 3.26 3.22 3.41 3.38 3.02 2.93 2.88 3.21 2.79 2.15 2.02 2.25 2.71 3.10 3.22 3.04 2.78 2.62
2.56 2.56 2.64 2.78 2.87 3.06 3.08 2.97 2.83 2.64 2.67 2.85 3.06 3.02 3.21 3.36 3.37 3.32 3.61 3.80 4.02 4.40 4.81 4.59 4.52 4.09 3.98 3.75 3.55 3.56 3.35 3.04 3.31 3.41 2.81 2.31 2.47 2.93 3.25 3.30 3.12 2.97 3.00
3.24 3.07 3.15 3.39 3.42 3.38 3.41 3.14 2.63 2.46 2.35 2.40 2.59 2.72 2.68 3.08 3.40 3.43 3.37 3.53 3.42 3.61 4.05 4.65 4.49 4.63 4.50 4.05 3.56 3.46 3.57 3.44 3.35 3.26 2.84 2.69 2.89 2.98 3.13 3.23 3.27 3.27 3.30
4.23 4.02 3.85 3.98 3.66 3.50 3.43 3.17 2.90 2.50 2.52 2.43 2.38 2.34 2.56 2.85 3.18 3.17 3.18 3.47 3.45 3.34 3.51 4.00 4.17 4.59 4.52 4.13 3.52 3.23 3.30 3.39 3.24 3.10 2.91 2.84 2.88 2.71 2.84 3.29 3.65 3.84 3.78
5.35 4.98 4.41 4.15 3.89 3.75 3.59 3.19 2.79 2.59 2.42 2.59 2.57 2.43 2.49 2.64 2.91 2.91 3.02 3.06 3.07 2.99 3.15 3.36 3.59 3.88 3.79 3.61 3.52 3.28 3.16 3.09 2.87 2.91 2.96 2.83 2.52 2.68 2.82 3.09 3.43 3.72 3.97
6.10 5.57 4.83 4.07 4.18 4.15 3.95 3.35 2.86 2.67 2.61 2.58 2.46 2.31 2.24 2.42 2.42 2.59 2.61 2.57 2.61 2.48 2.64 3.07 3.12 3.34 3.54 3.53 3.70 3.41 3.13 3.17 2.94 2.87 2.86 2.91 2.91 2.56 2.89 3.04 3.19 3.36 3.75
6.20 6.06 5.44 5.28 5.09 4.48 3.84 3.29 2.92 2.72 2.68 2.43 2.38 2.34 2.33 2.32 2.38 2.55 2.69 2.70 2.31 2.30 2.45 2.26 2.75 3.03 3.23 3.24 2.80 2.92 2.64 2.70 2.69 2.36 2.50 2.47 2.72 2.76 2.94 2.87 3.08 3.08 3.44
5.22 5.15 5.08 5.20 4.80 4.21 3.62 3.22 3.03 2.81 2.56 2.37 2.34 2.46 2.46 2.40 2.35 2.67 2.51 2.32 2.11 2.48 2.79 2.84 3.19 3.13 2.96 2.98 2.45 2.53 2.34 2.20 2.27 2.18 2.09 2.20 2.32 2.28 2.64 2.82 2.94 2.62 2.95
3.75 3.87 4.21 4.38 4.15 3.70 3.33 2.88 2.79 2.78 2.54 2.33 2.24 2.10 2.28 2.19 2.40 2.79 2.53 2.86 2.53 2.61 2.78 2.80 3.03 2.98 2.67 2.62 3.02 3.03 2.43 1.96 2.02 1.90 1.86 2.10 2.08 2.20 2.60 2.90 3.08 3.05 2.85
2.97 3.27 3.61 3.86 3.72 3.15 2.94 2.79 2.72 2.69 2.50 2.54 2.45 2.44 2.18 2.14 2.36 2.42 2.82 2.61 2.68 2.87 2.87 2.92 3.09 3.08 2.76 2.74 3.19 3.53 3.10 2.97 2.56 1.78 1.83 2.00 2.06 2.28 2.35 2.36 2.67 3.12 3.02
2.77 2.99 2.90 3.17 3.36 3.11 3.03 2.97 2.90 2.87 2.67 2.77 2.76 2.65 2.26 2.07 2.06 2.25 2.45 2.48 2.74 2.54 2.91 3.14 3.10 3.21 3.22 3.04 3.08 3.53 3.55 3.39 2.83 2.23 1.81 1.79 2.02 2.39 2.40 2.45 2.30 2.62 2.93
2.04 2.35 2.71 3.04 3.13 3.07 2.97 2.79 2.70 2.52 2.48 2.50 2.51 2.51 2.34 2.19 2.06 2.15 2.28 2.61 2.80 2.54 3.11 2.69 2.81 3.09 3.27 3.08 3.05 2.90 3.03 3.27 3.32 3.01 2.43 1.92 1.90 2.15 2.34 2.17 2.19 2.55 2.86
1.50 1.91 2.48 2.96 3.19 3.09 2.78 2.66 2.79 2.64 2.55 2.53 2.43 2.62 2.44 2.28 2.11 2.00 2.27 2.57 2.70 2.60 2.77 2.82 3.10 2.96 2.91 2.93 3.01 3.08 3.24 3.18 2.92 3.06 2.99 2.63 2.29 1.80 1.68 1.85 2.14 2.35 2.58
1.30 1.58 2.05 2.49 2.80 2.88 2.68 2.58 2.66 2.76 2.75 2.62 2.48 2.47 2.27 2.23 2.16 2.07 2.27 2.57 2.53 2.59 2.77 2.73 2.88 2.87 2.95 3.04 2.88 2.81 3.07 3.07 2.96 3.06 2.77 2.56 2.47 1.81 1.52 1.57 1.78 2.17 2.36